Location: B?r??tii Iliei
(46.0167°N, 22.7333°E)
Time: 22:23:25
(UTC+00:00)

Daily predictions for brighter satellites

Satellite Brightness Start Highest point End
(mag) Time Altitude Azimuth Time Altitude Azimuth Time Altitude Azimuth
SME Rocket 3.7 15:54:12 10° NNE 15:58:21 75° WNW 16:04:05 10° SSW
ARGOS 3.8 15:57:25 10° SE 16:02:11 33° ENE 16:06:59 10° N
CZ-2C R/B 4.1 15:56:56 10° S 16:02:41 61° W 16:08:24 10° NNW
Cosmos 2369 3.8 15:57:46 10° SSW 16:03:26 89° ESE 16:09:10 10° NNE
Cosmos 2263 Rocket 2.4 15:58:23 10° NNW 16:03:48 49° ENE 16:09:11 10° SE
Cosmos 1356 4.4 16:00:58 10° NNW 16:04:17 52° W 16:07:34 10° S
Cosmos 1980 Rocket 2.2 16:00:01 10° SSW 16:05:39 73° ESE 16:11:20 10° NNE
MOS 1-B 4.3 16:00:29 10° SSE 16:06:15 73° ENE 16:12:01 10° NNW
Cosmos 1821 Rocket 4.1 16:01:24 10° S 16:07:39 61° E 16:13:55 10° NNE
USA 215 3.7 16:01:46 10° NE 16:08:12 62° NNW 16:14:38 10° WSW
Cosmos 389 Rocket 2.4 16:05:50 10° S 16:09:14 90° NW 16:12:40 10° N
Cosmos 1758 3.9 16:05:52 10° SSW 16:09:48 62° W 16:13:45 10° N
Meteor 1-21 Rocket 4.3 16:04:32 10° N 16:10:24 66° ENE 16:16:16 10° SSE
Cosmos 371 Rocket 4.3 16:08:43 10° SSE 16:12:41 26° E 16:16:40 10° NE
SKYMED 2 4.0 16:09:28 10° NNE 16:13:35 39° E 16:17:39 10° SSE
SMAP 3.9 16:11:15 10° S 16:15:48 55° W 16:20:24 10° NNW
Cosmos 1953 2.3 16:11:53 10° S 16:15:52 62° E 16:19:53 10° NNE
CZ-2D R/B 3.2 16:15:33 10° SSE 16:19:24 84° ENE 16:23:17 10° N
Cosmos 1269 Rocket 4.1 16:14:21 10° NNW 16:19:35 54° ENE 16:24:45 10° SE
Cosmos 1125 Rocket 3.9 16:15:06 10° SSW 16:20:20 68° WNW 16:25:35 10° NNE
YAOGAN 1 3.6 16:17:44 10° ESE 16:21:16 25° ENE 16:24:48 10° N
CZ-2C R/B 3.0 16:16:32 10° NNE 16:21:55 45° E 16:27:10 10° S
Cosmos 1455 Rocket 3.2 16:17:50 10° S 16:22:07 52° E 16:26:27 10° NNE
Cosmos 1697 Rocket 3.7 16:16:42 10° SW 16:22:09 48° WNW 16:27:38 10° NNE
SL-8 R/B 3.8 16:18:55 10° SW 16:23:39 64° SSE 16:27:49 13° ENE
Cosmos 1934 Rocket 4.2 16:18:38 10° SSE 16:24:20 43° E 16:30:01 10° NNE
H-2A R/B 3.2 16:20:53 10° SE 16:24:43 32° ENE 16:28:27 10° N
H-2A R/B 3.5 16:23:48 10° NE 16:26:23 16° E 16:28:57 10° SE
NOSS 3-1 (A) 4.5 16:26:52 10° SSE 16:30:22 18° ESE 16:32:39 14° E
CZ-4 R/B 2.2 16:27:58 10° SE 16:31:26 29° ENE 16:34:59 10° N
ATLAS 3B R/B 3.6 16:25:12 10° WSW 16:31:30 45° NW 16:38:06 10° NNE
Okean O Rocket 1.5 16:31:13 10° SSE 16:35:32 75° ENE 16:39:54 10° N
Cosmos 1908 3.6 16:32:05 10° SSW 16:35:55 66° W 16:39:47 10° N
Tiangong 2.5 16:33:13 10° SW 16:36:00 27° SSE 16:37:44 17° ESE
Cosmos 1544 Rocket 3.9 16:31:55 10° SSE 16:36:07 42° E 16:40:21 10° NNE
CZ-4 R/B 4.4 16:32:36 10° SSE 16:36:42 63° ENE 16:40:48 10° N
Cosmos 1844 Rocket 3.8 16:32:50 10° N 16:37:17 24° NE 16:39:57 17° E
SL-19 R/B 4.4 16:33:48 10° NNE 16:39:34 86° WNW 16:45:07 10° SSW
USA 267 4.1 16:36:33 10° SSE 16:42:53 51° SW 16:49:16 10° WNW
SL-08 RB Rocket 3.9 16:39:45 10° SE 16:44:07 49° ENE 16:48:34 10° N
Cosmos 2278 3.9 16:39:34 10° SSW 16:45:14 76° WNW 16:50:59 10° NNE
Cosmos 2123 Rocket 4.0 16:39:01 10° N 16:45:21 68° E 16:51:37 10° SSE
NOSS 2-3 (D) 4.1 16:46:55 10° S 16:50:36 34° ESE 16:52:36 23° ENE
Meteor 1-4 Rocket 3.4 16:48:45 10° SSE 16:51:14 26° ESE 16:51:14 26° ESE
Okean-O 3.4 16:51:28 22° ESE 16:53:21 30° ENE 16:57:14 10° N
Okean 1-7 Rocket 3.5 16:49:42 10° N 16:54:08 76° E 16:58:34 10° SSE
IRAS Rocket 4.3 16:48:45 10° NNE 16:54:13 54° ESE 16:59:35 10° S
Feng Yun 1-1 Rocket 4.2 16:50:15 10° SSE 16:55:45 73° ENE 17:01:28 10° NNW
NOSS 3-1 (C) 3.3 16:50:52 10° SSW 16:55:53 51° ESE 17:00:53 14° NE
Landsat 5 3.7 16:53:34 10° N 16:57:59 78° WNW 17:02:28 10° SSW
CZ-2C R/B 3.3 16:56:32 10° SW 16:58:16 13° S 16:59:50 10° SSE
HJ-1C 3.7 16:58:01 35° ESE 16:58:45 41° ENE 17:01:50 10° N
SL-16 R/B 2.3 16:53:58 10° S 16:59:28 55° ESE 17:05:01 10° NE
Cosmos 1602 Rocket 3.9 16:56:19 10° N 17:00:28 42° ENE 17:03:14 19° SE
COSMO-SKYMED 1 3.0 16:57:25 10° N 17:01:44 65° WNW 17:06:02 10° SSW
NOSS 2-3 (C) 3.7 16:59:18 10° SSW 17:03:10 48° ESE 17:05:07 28° ENE
Meteor 2-10 Rocket 3.8 17:01:37 10° SSE 17:06:58 47° E 17:12:08 10° NNE
Cosmos 2344 4.3 17:00:44 10° NW 17:09:35 63° NE 17:18:58 19° ESE
ATLAS 5 CENTAUR R/B 2.6 17:06:07 10° WSW 17:09:48 39° NW 17:13:52 11° NNE
Cosmos 304 Rocket 3.8 17:08:01 10° S 17:12:38 52° ESE 17:16:16 16° NE
Cosmos 1300 2.8 17:09:06 10° SSW 17:12:53 76° W 17:16:43 10° N
Cosmos 839 Rocket 4.2 17:06:01 10° NNW 17:13:50 72° NE 17:18:21 21° SE
Cosmos 2322 Rocket 2.2 17:08:27 10° S 17:13:53 54° ESE 17:18:57 12° NE
Cosmos 1408 4.2 17:16:15 10° N 17:17:48 22° NNE 17:17:48 22° NNE
Cosmos 1844 4.2 17:14:30 10° NNW 17:19:55 39° NE 17:21:05 35° E
CZ-4C R/B 4.1 17:17:38 10° N 17:20:53 43° WNW 17:24:01 10° SW
Lacrosse 4 Rocket 1.5 17:17:47 10° NNW 17:22:03 60° NE 17:22:49 51° E
Meteor 1-11 4.4 17:17:04 10° NNW 17:22:41 75° W 17:28:18 10° S
Cosmos 332 Rocket 3.7 17:20:13 10° S 17:25:04 69° ESE 17:28:59 16° NNE
Cosmos 2360 Rocket 2.5 17:20:32 10° S 17:25:46 41° ESE 17:26:15 40° E
SWARM C 4.5 17:25:00 10° S 17:28:17 82° W 17:31:37 10° N
SWARM A 4.2 17:25:10 10° S 17:28:27 81° W 17:31:47 10° N
Cosmos 1758 Rocket 3.6 17:25:13 10° N 17:29:10 53° ENE 17:29:10 53° ENE
DMSP B5D2-2 3.9 17:26:49 10° NNE 17:32:06 78° ESE 17:37:19 10° S
Cosmos 614 Rocket 3.8 17:28:36 10° NNW 17:33:40 68° ENE 17:34:56 49° SE
Cosmos 1605 Rocket 4.0 17:27:25 10° S 17:33:41 89° W 17:40:05 10° N
X-37B 1.5 17:31:13 10° W 17:33:45 47° WSW 17:33:45 47° WSW
H-2A R/B 4.2 17:30:22 10° SSW 17:34:57 28° W 17:39:36 10° NW
Iridium 4 Rocket 4.5 17:31:03 10° NNW 17:35:22 43° W 17:40:01 10° SSW
Cosmos 1626 Rocket 4.1 17:32:22 10° NNW 17:36:37 56° W 17:40:50 10° S
Cosmos 1447 Rocket 4.3 17:36:51 10° N 17:43:02 85° E 17:49:11 10° S
In-Cosmos 22 Rocket 3.9 17:38:10 10° N 17:43:33 89° E 17:46:37 26° S
Cosmos 2263 Rocket 4.1 17:42:49 10° NW 17:47:26 27° WSW 17:52:02 10° SSW
Cosmos 1153 Rocket 4.4 17:42:54 10° S 17:49:16 78° E 17:55:42 10° N
MetOp-A 4.1 17:47:07 29° SSE 17:49:59 87° WSW 17:55:23 10° NNW
Cosmos 1980 Rocket 4.4 17:45:50 10° W 17:50:15 23° NW 17:54:43 10° N
USA 215 4.3 17:47:07 22° NE 17:50:33 36° N 17:56:23 10° WNW
CSL-04 Debris 4.1 17:49:52 36° SSE 17:52:10 88° WSW 17:57:37 10° NNW
NOSS 2-3 (E) 3.9 17:49:32 10° SW 17:53:32 61° NW 17:54:10 54° N
YAOGAN 1 4.1 17:53:15 10° SSW 17:57:12 35° W 18:01:12 10° NNW
USA 229 DEB 3.4 17:51:29 10° SSW 17:57:48 77° SE 17:59:48 48° NE
USA 229 3.4 17:51:35 10° SSW 17:57:55 76° SE 17:59:48 49° NE
H-2A R/B 2.8 17:58:38 10° N 18:02:37 49° WNW 18:06:38 10° SW
Cosmos 1892 4.2 18:01:07 10° NNW 18:03:25 32° NW 18:03:25 32° NW
SL-8 R/B 4.0 18:01:28 10° W 18:05:47 63° NW 18:05:47 63° NW
CZ-4 R/B 3.5 18:03:02 10° SSW 18:06:24 26° W 18:09:50 10° NW
CSL-04 Rocket 3.8 18:05:17 45° S 18:07:02 75° WSW 18:12:38 10° NNW
Cosmos 2237 4.3 18:03:41 10° SSW 18:09:24 74° WNW 18:11:49 36° NNE
Tiangong 4.3 18:09:32 10° WSW 18:09:58 13° WSW 18:09:58 13° WSW
Cosmos 2251 Rocket 4.1 18:14:19 10° NNW 18:19:25 53° WSW 18:20:00 50° SW
NOSS 3-1 (A) 3.3 18:14:54 10° SW 18:20:11 76° NW 18:20:11 76° NW
Cosmos 1844 Rocket 2.8 18:16:09 10° NNW 18:21:39 67° WSW 18:21:39 67° WSW
Cosmos 1932 4.5 18:22:52 10° NW 18:28:54 75° WSW 18:28:54 75° WSW
Okean-O 4.3 18:29:03 28° WSW 18:29:47 30° W 18:33:42 10° NW
Cosmos 44 4.5 18:26:05 10° SW 18:29:37 41° SW 18:29:37 41° SW
Cosmos 407 Rocket 4.4 18:26:52 10° NNW 18:30:24 43° NNW 18:30:24 43° NNW
Cosmos 2278 Rocket 4.0 18:33:02 10° NNW 18:35:14 21° N 18:35:14 21° N
SL-16 R/B 4.0 18:39:04 10° WSW 18:43:55 28° NW 18:48:40 10° N
CENTAUR R/B 4.1 18:39:17 10° NNW 18:45:53 31° NNE 18:45:53 31° NNE
ATLAS 5 CENTAUR R/B 4.4 18:53:54 10° NW 18:55:23 12° NNW 18:55:23 12° NNW
Cosmos 2322 Rocket 4.0 18:53:29 10° WSW 18:58:15 28° NW 19:00:50 20° N
Lacrosse 4 Rocket 4.3 18:57:35 10° WNW 18:59:08 15° W 18:59:08 15° W
Cosmos 2360 Rocket 3.8 19:04:41 10° WSW 19:08:09 29° W 19:08:09 29° W
